Back to catalog

STARLINK-2427

AliveCommunicationsVLEO
NORAD 47837·PAYLOAD·🇺🇸 United States

Launched Mar 11, 2021 from Cape Canaveral Space Force Station

Loading…

Next Passes (next 24 hours)

TLE

FreshSource: CelesTrak SupGP

Epoch: Sep 15, 2026, 00:27 UTC

1 47837C 21018BC  26258.01923611  .00058339  00000+0  18050-2 0  2588
2 47837  53.1587  77.8407 0000324 342.7368 337.9260 15.32904071    18

Track STARLINK-2427 in real time with AllMySat

Download on the App Store